Year,Month,Day,Hour,Minute,Value (Times are PST for temperature in C)
2018,08,20,00,00,13.90
2018,08,20,00,01,13.90
2018,08,20,00,02,13.90
2018,08,20,00,03,13.90
2018,08,20,00,04,13.90
2018,08,20,00,05,13.90
2018,08,20,00,06,13.90
2018,08,20,00,07,13.90
2018,08,20,00,08,13.90
2018,08,20,00,09,13.90
2018,08,20,00,10,13.80
2018,08,20,00,11,13.80
2018,08,20,00,12,13.80
2018,08,20,00,13,13.80
2018,08,20,00,14,13.80
2018,08,20,00,15,13.80
2018,08,20,00,16,13.80
2018,08,20,00,17,13.80
2018,08,20,00,18,13.80
2018,08,20,00,19,13.80
2018,08,20,00,20,13.80
2018,08,20,00,21,13.80
2018,08,20,00,22,13.80
2018,08,20,00,23,13.80
2018,08,20,00,24,13.80
2018,08,20,00,25,13.80
2018,08,20,00,26,13.80
2018,08,20,00,27,13.80
2018,08,20,00,28,13.80
2018,08,20,00,29,13.80
2018,08,20,00,30,13.80
2018,08,20,00,31,13.80
2018,08,20,00,32,13.80
2018,08,20,00,33,13.70
2018,08,20,00,34,13.70
2018,08,20,00,35,13.70
2018,08,20,00,36,13.70
2018,08,20,00,37,13.70
2018,08,20,00,38,13.70
2018,08,20,00,39,13.70
2018,08,20,00,40,13.70
2018,08,20,00,41,13.70
2018,08,20,00,42,13.70
2018,08,20,00,43,13.70
2018,08,20,00,44,13.70
2018,08,20,00,45,13.70
2018,08,20,00,46,13.80
2018,08,20,00,47,13.70
2018,08,20,00,48,13.70
2018,08,20,00,49,13.70
2018,08,20,00,50,13.70
2018,08,20,00,51,13.70
2018,08,20,00,52,13.70
2018,08,20,00,53,13.70
2018,08,20,00,54,13.70
2018,08,20,00,55,13.70
2018,08,20,00,56,13.70
2018,08,20,00,57,13.70
2018,08,20,00,58,13.70
2018,08,20,00,59,13.70
2018,08,20,01,00,13.70
2018,08,20,01,01,13.70
2018,08,20,01,02,13.70
2018,08,20,01,03,13.70
2018,08,20,01,04,13.70
2018,08,20,01,05,13.70
2018,08,20,01,06,13.70
2018,08,20,01,07,13.70
2018,08,20,01,08,13.70
2018,08,20,01,09,13.70
2018,08,20,01,10,13.70
2018,08,20,01,11,13.70
2018,08,20,01,12,13.70
2018,08,20,01,13,13.70
2018,08,20,01,14,13.70
2018,08,20,01,15,13.70
2018,08,20,01,16,13.70
2018,08,20,01,17,13.70
2018,08,20,01,18,13.70
2018,08,20,01,19,13.70
2018,08,20,01,20,13.70
2018,08,20,01,21,13.70
2018,08,20,01,22,13.70
2018,08,20,01,23,13.60
2018,08,20,01,24,13.60
2018,08,20,01,25,13.60
2018,08,20,01,26,13.60
2018,08,20,01,27,13.60
2018,08,20,01,28,13.60
2018,08,20,01,29,13.60
2018,08,20,01,30,13.60
2018,08,20,01,31,13.60
2018,08,20,01,32,13.60
2018,08,20,01,33,13.60
2018,08,20,01,34,13.60
2018,08,20,01,35,13.60
2018,08,20,01,36,13.60
2018,08,20,01,37,13.60
2018,08,20,01,38,13.60
2018,08,20,01,39,13.50
2018,08,20,01,40,13.50
2018,08,20,01,41,13.50
2018,08,20,01,42,13.50
2018,08,20,01,43,13.50
2018,08,20,01,44,13.50
2018,08,20,01,45,13.50
2018,08,20,01,46,13.50
2018,08,20,01,47,13.50
2018,08,20,01,48,13.50
2018,08,20,01,49,13.50
2018,08,20,01,50,13.50
2018,08,20,01,51,13.50
2018,08,20,01,52,13.50
2018,08,20,01,53,13.50
2018,08,20,01,54,13.40
2018,08,20,01,55,13.40
2018,08,20,01,56,13.40
2018,08,20,01,57,13.40
2018,08,20,01,58,13.40
2018,08,20,01,59,13.40
2018,08,20,02,00,13.40
2018,08,20,02,01,13.40
2018,08,20,02,02,13.40
2018,08,20,02,03,13.40
2018,08,20,02,04,13.40
2018,08,20,02,05,13.40
2018,08,20,02,06,13.40
2018,08,20,02,07,13.40
2018,08,20,02,08,13.40
2018,08,20,02,09,13.40
2018,08,20,02,10,13.30
2018,08,20,02,11,13.30
2018,08,20,02,12,13.30
2018,08,20,02,13,13.30
2018,08,20,02,14,13.30
2018,08,20,02,15,13.30
2018,08,20,02,16,13.30
2018,08,20,02,17,13.30
2018,08,20,02,18,13.30
2018,08,20,02,19,13.30
2018,08,20,02,20,13.30
2018,08,20,02,21,13.30
2018,08,20,02,22,13.30
2018,08,20,02,23,13.30
2018,08,20,02,24,13.30
2018,08,20,02,25,13.30
2018,08,20,02,26,13.30
2018,08,20,02,27,13.30
2018,08,20,02,28,13.30
2018,08,20,02,29,13.30
2018,08,20,02,30,13.30
2018,08,20,02,31,13.30
2018,08,20,02,32,13.30
2018,08,20,02,33,13.30
2018,08,20,02,34,13.30
2018,08,20,02,35,13.30
2018,08,20,02,36,13.30
2018,08,20,02,37,13.30
2018,08,20,02,38,13.30
2018,08,20,02,39,13.30
2018,08,20,02,40,13.30
2018,08,20,02,41,13.30
2018,08,20,02,42,13.30
2018,08,20,02,43,13.20
2018,08,20,02,44,13.20
2018,08,20,02,45,13.20
2018,08,20,02,46,13.20
2018,08,20,02,47,13.20
2018,08,20,02,48,13.20
2018,08,20,02,49,13.20
2018,08,20,02,50,13.20
2018,08,20,02,51,13.20
2018,08,20,02,52,13.20
2018,08,20,02,53,13.20
2018,08,20,02,54,13.20
2018,08,20,02,55,13.20
2018,08,20,02,56,13.20
2018,08,20,02,57,13.10
2018,08,20,02,58,13.10
2018,08,20,02,59,13.10
2018,08,20,03,00,13.10
2018,08,20,03,01,13.10
2018,08,20,03,02,13.10
2018,08,20,03,03,13.10
2018,08,20,03,04,13.10
2018,08,20,03,05,13.10
2018,08,20,03,06,13.10
2018,08,20,03,07,13.10
2018,08,20,03,08,13.10
2018,08,20,03,09,13.10
2018,08,20,03,10,13.10
2018,08,20,03,11,13.10
2018,08,20,03,12,13.10
2018,08,20,03,13,13.10
2018,08,20,03,14,13.10
2018,08,20,03,15,13.10
2018,08,20,03,16,13.10
2018,08,20,03,17,13.10
2018,08,20,03,18,13.10
2018,08,20,03,19,13.10
2018,08,20,03,20,13.10
2018,08,20,03,21,13.10
2018,08,20,03,22,13.00
2018,08,20,03,23,13.00
2018,08,20,03,24,13.00
2018,08,20,03,25,13.00
2018,08,20,03,26,13.00
2018,08,20,03,27,13.00
2018,08,20,03,28,13.00
2018,08,20,03,29,13.00
2018,08,20,03,30,13.00
2018,08,20,03,31,13.00
2018,08,20,03,32,13.00
2018,08,20,03,33,13.10
2018,08,20,03,34,13.10
2018,08,20,03,35,13.10
2018,08,20,03,36,13.10
2018,08,20,03,37,13.10
2018,08,20,03,38,13.10
2018,08,20,03,39,13.10
2018,08,20,03,40,13.10
2018,08,20,03,41,13.10
2018,08,20,03,42,13.10
2018,08,20,03,43,13.10
2018,08,20,03,44,13.10
2018,08,20,03,45,13.10
2018,08,20,03,46,13.10
2018,08,20,03,47,13.10
2018,08,20,03,48,13.20
2018,08,20,03,49,13.20
2018,08,20,03,50,13.20
2018,08,20,03,51,13.20
2018,08,20,03,52,13.20
2018,08,20,03,53,13.20
2018,08,20,03,54,13.20
2018,08,20,03,55,13.20
2018,08,20,03,56,13.10
2018,08,20,03,57,13.10
2018,08,20,03,58,13.10
2018,08,20,03,59,13.10
2018,08,20,04,00,13.10
2018,08,20,04,01,13.10
2018,08,20,04,02,13.10
2018,08,20,04,03,13.10
2018,08,20,04,04,13.10
2018,08,20,04,05,13.10
2018,08,20,04,06,13.00
2018,08,20,04,07,13.00
2018,08,20,04,08,13.00
2018,08,20,04,09,13.00
2018,08,20,04,10,13.00
2018,08,20,04,11,13.00
2018,08,20,04,12,12.90
2018,08,20,04,13,12.90
2018,08,20,04,14,12.90
2018,08,20,04,15,12.90
2018,08,20,04,16,12.90
2018,08,20,04,17,12.80
2018,08,20,04,18,12.80
2018,08,20,04,19,12.80
2018,08,20,04,20,12.80
2018,08,20,04,21,12.70
2018,08,20,04,22,12.70
2018,08,20,04,23,12.70
2018,08,20,04,24,12.70
2018,08,20,04,25,12.70
2018,08,20,04,26,12.70
2018,08,20,04,27,12.70
2018,08,20,04,28,12.70
2018,08,20,04,29,12.70
2018,08,20,04,30,12.70
2018,08,20,04,31,12.70
2018,08,20,04,32,12.70
2018,08,20,04,33,12.70
2018,08,20,04,34,12.70
2018,08,20,04,35,12.70
2018,08,20,04,36,12.70
2018,08,20,04,37,12.70
2018,08,20,04,38,12.70
2018,08,20,04,39,12.70
2018,08,20,04,40,12.60
2018,08,20,04,41,12.60
2018,08,20,04,42,12.60
2018,08,20,04,43,12.50
2018,08,20,04,44,12.50
2018,08,20,04,45,12.50
2018,08,20,04,46,12.50
2018,08,20,04,47,12.50
2018,08,20,04,48,12.50
2018,08,20,04,49,12.40
2018,08,20,04,50,12.50
2018,08,20,04,51,12.50
2018,08,20,04,52,12.50
2018,08,20,04,53,12.50
2018,08,20,04,54,12.50
2018,08,20,04,55,12.60
2018,08,20,04,56,12.60
2018,08,20,04,57,12.50
2018,08,20,04,58,12.50
2018,08,20,04,59,12.50
2018,08,20,05,00,12.50
2018,08,20,05,01,12.60
2018,08,20,05,02,12.60
2018,08,20,05,03,12.60
2018,08,20,05,04,12.60
2018,08,20,05,05,12.60
2018,08,20,05,06,12.60
2018,08,20,05,07,12.60
2018,08,20,05,08,12.60
2018,08,20,05,09,12.60
2018,08,20,05,10,12.60
2018,08,20,05,11,12.60
2018,08,20,05,12,12.60
2018,08,20,05,13,12.60
2018,08,20,05,14,12.60
2018,08,20,05,15,12.60
2018,08,20,05,16,12.60
2018,08,20,05,17,12.60
2018,08,20,05,18,12.60
2018,08,20,05,19,12.60
2018,08,20,05,20,12.60
2018,08,20,05,21,12.60
2018,08,20,05,22,12.60
2018,08,20,05,23,12.60
2018,08,20,05,24,12.60
2018,08,20,05,25,12.60
2018,08,20,05,26,12.60
2018,08,20,05,27,12.60
2018,08,20,05,28,12.50
2018,08,20,05,29,12.50
2018,08,20,05,30,12.50
2018,08,20,05,31,12.50
2018,08,20,05,32,12.40
2018,08,20,05,33,12.40
2018,08,20,05,34,12.40
2018,08,20,05,35,12.40
2018,08,20,05,36,12.40
2018,08,20,05,37,12.40
2018,08,20,05,38,12.40
2018,08,20,05,39,12.40
2018,08,20,05,40,12.40
2018,08,20,05,41,12.40
2018,08,20,05,42,12.30
2018,08,20,05,43,12.30
2018,08,20,05,44,12.30
2018,08,20,05,45,12.30
2018,08,20,05,46,12.30
2018,08,20,05,47,12.30
2018,08,20,05,48,12.30
2018,08,20,05,49,12.30
2018,08,20,05,50,12.30
2018,08,20,05,51,12.30
2018,08,20,05,52,12.30
2018,08,20,05,53,12.30
2018,08,20,05,54,12.30
2018,08,20,05,55,12.30
2018,08,20,05,56,12.20
2018,08,20,05,57,12.20
2018,08,20,05,58,12.20
2018,08,20,05,59,12.20
2018,08,20,06,00,12.20
2018,08,20,06,01,12.20
2018,08,20,06,02,12.20
2018,08,20,06,03,12.10
2018,08,20,06,04,12.10
2018,08,20,06,05,12.10
2018,08,20,06,06,12.10
2018,08,20,06,07,12.10
2018,08,20,06,08,12.10
2018,08,20,06,09,12.00
2018,08,20,06,10,12.00
2018,08,20,06,11,12.10
2018,08,20,06,12,12.10
2018,08,20,06,13,12.10
2018,08,20,06,14,12.10
2018,08,20,06,15,12.10
2018,08,20,06,16,12.10
2018,08,20,06,17,12.10
2018,08,20,06,18,12.10
2018,08,20,06,19,12.10
2018,08,20,06,20,12.10
2018,08,20,06,21,12.10
2018,08,20,06,22,12.10
2018,08,20,06,23,12.10
2018,08,20,06,24,12.10
2018,08,20,06,25,12.10
2018,08,20,06,26,12.10
2018,08,20,06,27,12.10
2018,08,20,06,28,12.10
2018,08,20,06,29,12.10
2018,08,20,06,30,12.00
2018,08,20,06,31,12.00
2018,08,20,06,32,12.00
2018,08,20,06,33,12.00
2018,08,20,06,34,12.00
2018,08,20,06,35,12.00
2018,08,20,06,36,12.00
2018,08,20,06,37,12.00
2018,08,20,06,38,12.00
2018,08,20,06,39,12.10
2018,08,20,06,40,12.10
2018,08,20,06,41,12.10
2018,08,20,06,42,12.10
2018,08,20,06,43,12.10
2018,08,20,06,44,12.10
2018,08,20,06,45,12.10
2018,08,20,06,46,12.10
2018,08,20,06,47,12.10
2018,08,20,06,48,12.10
2018,08,20,06,49,12.10
2018,08,20,06,50,12.10
2018,08,20,06,51,12.10
2018,08,20,06,52,12.10
2018,08,20,06,53,12.10
2018,08,20,06,54,12.10
2018,08,20,06,55,12.10
2018,08,20,06,56,12.10
2018,08,20,06,57,12.10
2018,08,20,06,58,12.10
2018,08,20,06,59,12.10
2018,08,20,07,00,12.10
2018,08,20,07,01,12.10
2018,08,20,07,02,12.10
2018,08,20,07,03,12.10
2018,08,20,07,04,12.00
2018,08,20,07,05,12.00
2018,08,20,07,06,12.00
2018,08,20,07,07,12.00
2018,08,20,07,08,12.00
2018,08,20,07,09,12.00
2018,08,20,07,10,11.90
2018,08,20,07,11,11.90
2018,08,20,07,12,11.90
2018,08,20,07,13,11.90
2018,08,20,07,14,11.90
2018,08,20,07,15,11.90
2018,08,20,07,16,11.90
2018,08,20,07,17,11.90
2018,08,20,07,18,11.90
2018,08,20,07,19,11.90
2018,08,20,07,20,11.90
2018,08,20,07,21,11.90
2018,08,20,07,22,11.90
2018,08,20,07,23,12.00
2018,08,20,07,24,12.00
2018,08,20,07,25,12.00
2018,08,20,07,26,12.10
2018,08,20,07,27,12.10
2018,08,20,07,28,12.10
2018,08,20,07,29,12.10
2018,08,20,07,30,12.10
2018,08,20,07,31,12.20
2018,08,20,07,32,12.20
2018,08,20,07,33,12.20
2018,08,20,07,34,12.20
2018,08,20,07,35,12.20
2018,08,20,07,36,12.20
2018,08,20,07,37,12.20
2018,08,20,07,38,12.20
2018,08,20,07,39,12.30
2018,08,20,07,40,12.30
2018,08,20,07,41,12.30
2018,08,20,07,42,12.30
2018,08,20,07,43,12.30
2018,08,20,07,44,12.30
2018,08,20,07,45,12.40
2018,08,20,07,46,12.40
2018,08,20,07,47,12.40
2018,08,20,07,48,12.40
2018,08,20,07,49,12.50
2018,08,20,07,50,12.50
2018,08,20,07,51,12.50
2018,08,20,07,52,12.60
2018,08,20,07,53,12.60
2018,08,20,07,54,12.60
2018,08,20,07,55,12.70
2018,08,20,07,56,12.70
2018,08,20,07,57,12.70
2018,08,20,07,58,12.80
2018,08,20,07,59,12.80
2018,08,20,08,00,12.90
2018,08,20,08,01,13.00
2018,08,20,08,02,13.00
2018,08,20,08,03,13.10
2018,08,20,08,04,13.20
2018,08,20,08,05,13.20
2018,08,20,08,06,13.30
2018,08,20,08,07,13.30
2018,08,20,08,08,13.40
2018,08,20,08,09,13.40
2018,08,20,08,10,13.40
2018,08,20,08,11,13.40
2018,08,20,08,12,13.50
2018,08,20,08,13,13.50
2018,08,20,08,14,13.60
2018,08,20,08,15,13.60
2018,08,20,08,16,13.70
2018,08,20,08,17,13.70
2018,08,20,08,18,13.80
2018,08,20,08,19,13.80
2018,08,20,08,20,13.80
2018,08,20,08,21,13.80
2018,08,20,08,22,13.90
2018,08,20,08,23,13.90
2018,08,20,08,24,14.00
2018,08,20,08,25,14.00
2018,08,20,08,26,14.10
2018,08,20,08,27,14.10
2018,08,20,08,28,14.20
2018,08,20,08,29,14.20
2018,08,20,08,30,14.30
2018,08,20,08,31,14.30
2018,08,20,08,32,14.30
2018,08,20,08,33,14.40
2018,08,20,08,34,14.40
2018,08,20,08,35,14.50
2018,08,20,08,36,14.50
2018,08,20,08,37,14.60
2018,08,20,08,38,14.60
2018,08,20,08,39,14.70
2018,08,20,08,40,14.70
2018,08,20,08,41,14.80
2018,08,20,08,42,14.80
2018,08,20,08,43,14.90
2018,08,20,08,44,14.90
2018,08,20,08,45,15.00
2018,08,20,08,46,15.00
2018,08,20,08,47,15.10
2018,08,20,08,48,15.10
2018,08,20,08,49,15.20
2018,08,20,08,50,15.20
2018,08,20,08,51,15.20
2018,08,20,08,52,15.30
2018,08,20,08,53,15.30
2018,08,20,08,54,15.30
2018,08,20,08,55,15.40
2018,08,20,08,56,15.40
2018,08,20,08,57,15.50
2018,08,20,08,58,15.50
2018,08,20,08,59,15.60
2018,08,20,09,00,15.60
2018,08,20,09,01,15.70
2018,08,20,09,02,15.70
2018,08,20,09,03,15.80
2018,08,20,09,04,15.80
2018,08,20,09,05,15.80
2018,08,20,09,06,15.90
2018,08,20,09,07,15.90
2018,08,20,09,08,16.00
2018,08,20,09,09,16.00
2018,08,20,09,10,16.10
2018,08,20,09,11,16.10
2018,08,20,09,12,16.10
2018,08,20,09,13,16.10
2018,08,20,09,14,16.20
2018,08,20,09,15,16.20
2018,08,20,09,16,16.30
2018,08,20,09,17,16.30
2018,08,20,09,18,16.30
2018,08,20,09,19,16.30
2018,08,20,09,20,16.40
2018,08,20,09,21,16.40
2018,08,20,09,22,16.50
2018,08,20,09,23,16.50
2018,08,20,09,24,16.60
2018,08,20,09,25,16.60
2018,08,20,09,26,16.60
2018,08,20,09,27,16.70
2018,08,20,09,28,16.70
2018,08,20,09,29,16.70
2018,08,20,09,30,16.80
2018,08,20,09,31,16.80
2018,08,20,09,32,16.80
2018,08,20,09,33,16.90
2018,08,20,09,34,16.90
2018,08,20,09,35,17.00
2018,08,20,09,36,17.00
2018,08,20,09,37,17.10
2018,08,20,09,38,17.10
2018,08,20,09,39,17.20
2018,08,20,09,40,17.20
2018,08,20,09,41,17.30
2018,08,20,09,42,17.30
2018,08,20,09,43,17.40
2018,08,20,09,44,17.40
2018,08,20,09,45,17.50
2018,08,20,09,46,17.60
2018,08,20,09,47,17.60
2018,08,20,09,48,17.70
2018,08,20,09,49,17.80
2018,08,20,09,50,17.90
2018,08,20,09,51,18.00
2018,08,20,09,52,18.00
2018,08,20,09,53,18.10
2018,08,20,09,54,18.20
2018,08,20,09,55,18.30
2018,08,20,09,56,18.30
2018,08,20,09,57,18.40
2018,08,20,09,58,18.40
2018,08,20,09,59,18.50
2018,08,20,10,00,18.60
2018,08,20,10,01,18.60
2018,08,20,10,02,18.70
2018,08,20,10,03,18.80
2018,08,20,10,04,18.90
2018,08,20,10,05,18.90
2018,08,20,10,06,19.00
2018,08,20,10,07,19.10
2018,08,20,10,08,19.20
2018,08,20,10,09,19.20
2018,08,20,10,10,19.30
2018,08,20,10,11,19.40
2018,08,20,10,12,19.40
2018,08,20,10,13,19.50
2018,08,20,10,14,19.60
2018,08,20,10,15,19.70
2018,08,20,10,16,19.70
2018,08,20,10,17,19.70
2018,08,20,10,18,19.80
2018,08,20,10,19,19.80
2018,08,20,10,20,19.80
2018,08,20,10,21,19.90
2018,08,20,10,22,19.90
2018,08,20,10,23,20.00
2018,08,20,10,24,20.00
2018,08,20,10,25,20.00
2018,08,20,10,26,20.00
2018,08,20,10,27,20.00
2018,08,20,10,28,20.00
2018,08,20,10,29,20.00
2018,08,20,10,30,20.10
2018,08,20,10,31,20.10
2018,08,20,10,32,20.20
2018,08,20,10,33,20.30
2018,08,20,10,34,20.30
2018,08,20,10,35,20.40
2018,08,20,10,36,20.50
2018,08,20,10,37,20.60
2018,08,20,10,38,20.60
2018,08,20,10,39,20.70
2018,08,20,10,40,20.80
2018,08,20,10,41,20.80
2018,08,20,10,42,20.90
2018,08,20,10,43,21.00
2018,08,20,10,44,21.10
2018,08,20,10,45,21.10
2018,08,20,10,46,21.20
2018,08,20,10,47,21.30
2018,08,20,10,48,21.40
2018,08,20,10,49,21.50
2018,08,20,10,50,21.50
2018,08,20,10,51,21.60
2018,08,20,10,52,21.60
2018,08,20,10,53,21.60
2018,08,20,10,54,21.60
2018,08,20,10,55,21.70
2018,08,20,10,56,21.70
2018,08,20,10,57,21.70
2018,08,20,10,58,21.70
2018,08,20,10,59,21.80
2018,08,20,11,00,21.80
2018,08,20,11,01,21.80
2018,08,20,11,02,21.80
2018,08,20,11,03,21.90
2018,08,20,11,04,21.90
2018,08,20,11,05,21.90
2018,08,20,11,06,22.00
2018,08,20,11,07,22.00
2018,08,20,11,08,22.10
2018,08,20,11,09,22.10
2018,08,20,11,10,22.20
2018,08,20,11,11,22.30
2018,08,20,11,12,22.40
2018,08,20,11,13,22.50
2018,08,20,11,14,22.60
2018,08,20,11,15,22.60
2018,08,20,11,16,22.60
2018,08,20,11,17,22.70
2018,08,20,11,18,22.70
2018,08,20,11,19,22.80
2018,08,20,11,20,22.90
2018,08,20,11,21,22.90
2018,08,20,11,22,23.00
2018,08,20,11,23,23.10
2018,08,20,11,24,23.20
2018,08,20,11,25,23.20
2018,08,20,11,26,23.20
2018,08,20,11,27,23.20
2018,08,20,11,28,23.20
2018,08,20,11,29,23.20
2018,08,20,11,30,23.10
2018,08,20,11,31,23.10
2018,08,20,11,32,23.10
2018,08,20,11,33,23.00
2018,08,20,11,34,22.90
2018,08,20,11,35,22.90
2018,08,20,11,36,22.90
2018,08,20,11,37,22.90
2018,08,20,11,38,22.90
2018,08,20,11,39,22.80
2018,08,20,11,40,22.80
2018,08,20,11,41,22.80
2018,08,20,11,42,22.80
2018,08,20,11,43,22.80
2018,08,20,11,44,22.80
2018,08,20,11,45,22.80
2018,08,20,11,46,22.80
2018,08,20,11,47,22.80
2018,08,20,11,48,22.80
2018,08,20,11,49,22.80
2018,08,20,11,50,22.80
2018,08,20,11,51,22.90
2018,08,20,11,52,22.90
2018,08,20,11,53,22.90
2018,08,20,11,54,22.90
2018,08,20,11,55,22.90
2018,08,20,11,56,22.90
2018,08,20,11,57,22.90
2018,08,20,11,58,22.90
2018,08,20,11,59,22.80
2018,08,20,12,00,22.80
2018,08,20,12,01,22.80
2018,08,20,12,02,22.80
2018,08,20,12,03,22.80
2018,08,20,12,04,22.70
2018,08,20,12,05,22.50
2018,08,20,12,06,22.30
2018,08,20,12,07,22.20
2018,08,20,12,08,22.10
2018,08,20,12,09,22.10
2018,08,20,12,10,22.10
2018,08,20,12,11,22.10
2018,08,20,12,12,22.10
2018,08,20,12,13,22.10
2018,08,20,12,14,22.10
2018,08,20,12,15,22.10
2018,08,20,12,16,22.10
2018,08,20,12,17,22.10
2018,08,20,12,18,22.20
2018,08,20,12,19,22.20
2018,08,20,12,20,22.20
2018,08,20,12,21,22.30
2018,08,20,12,22,22.40
2018,08,20,12,23,22.40
2018,08,20,12,24,22.50
2018,08,20,12,25,22.60
2018,08,20,12,26,22.80
2018,08,20,12,27,22.90
2018,08,20,12,28,23.00
2018,08,20,12,29,23.00
2018,08,20,12,30,23.00
2018,08,20,12,31,23.00
2018,08,20,12,32,22.90
2018,08,20,12,33,23.00
2018,08,20,12,34,23.00
2018,08,20,12,35,23.10
2018,08,20,12,36,23.10
2018,08,20,12,37,23.10
2018,08,20,12,38,23.10
2018,08,20,12,39,23.20
2018,08,20,12,40,23.20
2018,08,20,12,41,23.30
2018,08,20,12,42,23.30
2018,08,20,12,43,23.30
2018,08,20,12,44,23.30
2018,08,20,12,45,23.40
2018,08,20,12,46,23.50
2018,08,20,12,47,23.50
2018,08,20,12,48,23.60
2018,08,20,12,49,23.60
2018,08,20,12,50,23.70
2018,08,20,12,51,23.80
2018,08,20,12,52,23.90
2018,08,20,12,53,24.00
2018,08,20,12,54,24.00
2018,08,20,12,55,24.10
2018,08,20,12,56,24.10
2018,08,20,12,57,24.20
2018,08,20,12,58,24.20
2018,08,20,12,59,24.30
2018,08,20,13,00,24.40
2018,08,20,13,01,24.40
2018,08,20,13,02,24.50
2018,08,20,13,03,24.50
2018,08,20,13,04,24.60
2018,08,20,13,05,24.60
2018,08,20,13,06,24.60
2018,08,20,13,07,24.70
2018,08,20,13,08,24.80
2018,08,20,13,09,25.00
2018,08,20,13,10,25.10
2018,08,20,13,11,25.20
2018,08,20,13,12,25.20
2018,08,20,13,13,25.30
2018,08,20,13,14,25.30
2018,08,20,13,15,25.40
2018,08,20,13,16,25.40
2018,08,20,13,17,25.50
2018,08,20,13,18,25.50
2018,08,20,13,19,25.60
2018,08,20,13,20,25.70
2018,08,20,13,21,25.70
2018,08,20,13,22,25.80
2018,08,20,13,23,25.80
2018,08,20,13,24,25.90
2018,08,20,13,25,25.90
2018,08,20,13,26,25.90
2018,08,20,13,27,26.00
2018,08,20,13,28,26.00
2018,08,20,13,29,26.10
2018,08,20,13,30,26.20
2018,08,20,13,31,26.20
2018,08,20,13,32,26.20
2018,08,20,13,33,26.20
2018,08,20,13,34,26.20
2018,08,20,13,35,26.20
2018,08,20,13,36,26.20
2018,08,20,13,37,26.30
2018,08,20,13,38,26.40
2018,08,20,13,39,26.40
2018,08,20,13,40,26.60
2018,08,20,13,41,26.60
2018,08,20,13,42,26.80
2018,08,20,13,43,26.90
2018,08,20,13,44,27.00
2018,08,20,13,45,27.10
2018,08,20,13,46,27.20
2018,08,20,13,47,27.30
2018,08,20,13,48,27.30
2018,08,20,13,49,27.30
2018,08,20,13,50,27.20
2018,08,20,13,51,27.20
2018,08,20,13,52,27.20
2018,08,20,13,53,27.20
2018,08,20,13,54,27.30
2018,08,20,13,55,27.30
2018,08,20,13,56,27.30
2018,08,20,13,57,27.40
2018,08,20,13,58,27.40
2018,08,20,13,59,27.40
2018,08,20,14,00,27.50
2018,08,20,14,01,27.50
2018,08,20,14,02,27.50
2018,08,20,14,03,27.50
2018,08,20,14,04,27.50
2018,08,20,14,05,27.60
2018,08,20,14,06,27.60
2018,08,20,14,07,27.70
2018,08,20,14,08,27.70
2018,08,20,14,09,27.80
2018,08,20,14,10,27.80
2018,08,20,14,11,27.80
2018,08,20,14,12,27.70
2018,08,20,14,13,27.70
2018,08,20,14,14,27.70
2018,08,20,14,15,27.70
2018,08,20,14,16,27.70
2018,08,20,14,17,27.80
2018,08,20,14,18,27.80
2018,08,20,14,19,27.80
2018,08,20,14,20,27.80
2018,08,20,14,21,27.80
2018,08,20,14,22,27.80
2018,08,20,14,23,27.80
2018,08,20,14,24,27.90
2018,08,20,14,25,27.90
2018,08,20,14,26,28.00
2018,08,20,14,27,28.00
2018,08,20,14,28,28.10
2018,08,20,14,29,28.10
2018,08,20,14,30,28.20
2018,08,20,14,31,28.20
2018,08,20,14,32,28.20
2018,08,20,14,33,28.30
2018,08,20,14,34,28.30
2018,08,20,14,35,28.30
2018,08,20,14,36,28.30
2018,08,20,14,37,28.30
2018,08,20,14,38,28.30
2018,08,20,14,39,28.30
2018,08,20,14,40,28.30
2018,08,20,14,41,28.30
2018,08,20,14,42,28.40
2018,08,20,14,43,28.40
2018,08,20,14,44,28.50
2018,08,20,14,45,28.60
2018,08,20,14,46,28.70
2018,08,20,14,47,28.70
2018,08,20,14,48,28.80
2018,08,20,14,49,28.80
2018,08,20,14,50,28.80
2018,08,20,14,51,28.70
2018,08,20,14,52,28.80
2018,08,20,14,53,28.70
2018,08,20,14,54,28.70
2018,08,20,14,55,28.70
2018,08,20,14,56,28.70
2018,08,20,14,57,28.80
2018,08,20,14,58,28.80
2018,08,20,14,59,28.80
2018,08,20,15,00,28.70
2018,08,20,15,01,28.70
2018,08,20,15,02,28.60
2018,08,20,15,03,28.60
2018,08,20,15,04,28.70
2018,08,20,15,05,28.70
2018,08,20,15,06,28.70
2018,08,20,15,07,28.70
2018,08,20,15,08,28.70
2018,08,20,15,09,28.70
2018,08,20,15,10,28.70
2018,08,20,15,11,28.70
2018,08,20,15,12,28.80
2018,08,20,15,13,28.80
2018,08,20,15,14,28.90
2018,08,20,15,15,28.90
2018,08,20,15,16,28.90
2018,08,20,15,17,28.90
2018,08,20,15,18,28.90
2018,08,20,15,19,28.90
2018,08,20,15,20,29.00
2018,08,20,15,21,29.00
2018,08,20,15,22,28.90
2018,08,20,15,23,28.90
2018,08,20,15,24,29.00
2018,08,20,15,25,29.00
2018,08,20,15,26,29.00
2018,08,20,15,27,29.00
2018,08,20,15,28,29.00
2018,08,20,15,29,29.00
2018,08,20,15,30,29.00
2018,08,20,15,31,28.90
2018,08,20,15,32,28.90
2018,08,20,15,33,28.90
2018,08,20,15,34,28.90
2018,08,20,15,35,28.90
2018,08,20,15,36,28.90
2018,08,20,15,37,29.00
2018,08,20,15,38,29.00
2018,08,20,15,39,29.00
2018,08,20,15,40,29.00
2018,08,20,15,41,29.00
2018,08,20,15,42,29.00
2018,08,20,15,43,29.00
2018,08,20,15,44,28.90
2018,08,20,15,45,28.90
2018,08,20,15,46,28.90
2018,08,20,15,47,29.00
2018,08,20,15,48,29.00
2018,08,20,15,49,29.00
2018,08,20,15,50,29.00
2018,08,20,15,51,29.00
2018,08,20,15,52,29.10
2018,08,20,15,53,29.10
2018,08,20,15,54,29.10
2018,08,20,15,55,29.10
2018,08,20,15,56,29.20
2018,08,20,15,57,29.20
2018,08,20,15,58,29.30
2018,08,20,15,59,29.30
2018,08,20,16,00,29.40
2018,08,20,16,01,29.40
2018,08,20,16,02,29.40
2018,08,20,16,03,29.40
2018,08,20,16,04,29.40
2018,08,20,16,05,29.30
2018,08,20,16,06,29.30
2018,08,20,16,07,29.10
2018,08,20,16,08,29.00
2018,08,20,16,09,29.00
2018,08,20,16,10,28.90
2018,08,20,16,11,28.80
2018,08,20,16,12,28.70
2018,08,20,16,13,28.50
2018,08,20,16,14,28.30
2018,08,20,16,15,28.20
2018,08,20,16,16,28.00
2018,08,20,16,17,28.00
2018,08,20,16,18,27.90
2018,08,20,16,19,27.80
2018,08,20,16,20,27.80
2018,08,20,16,21,27.80
2018,08,20,16,22,27.80
2018,08,20,16,23,27.80
2018,08,20,16,24,27.80
2018,08,20,16,25,27.70
2018,08,20,16,26,27.70
2018,08,20,16,27,27.60
2018,08,20,16,28,27.60
2018,08,20,16,29,27.60
2018,08,20,16,30,27.60
2018,08,20,16,31,27.60
2018,08,20,16,32,27.60
2018,08,20,16,33,27.60
2018,08,20,16,34,27.60
2018,08,20,16,35,27.60
2018,08,20,16,36,27.60
2018,08,20,16,37,27.70
2018,08,20,16,38,27.80
2018,08,20,16,39,27.80
2018,08,20,16,40,27.90
2018,08,20,16,41,27.90
2018,08,20,16,42,28.00
2018,08,20,16,43,28.10
2018,08,20,16,44,28.10
2018,08,20,16,45,28.20
2018,08,20,16,46,28.20
2018,08,20,16,47,28.20
2018,08,20,16,48,28.20
2018,08,20,16,49,28.20
2018,08,20,16,50,28.20
2018,08,20,16,51,28.20
2018,08,20,16,52,28.20
2018,08,20,16,53,28.30
2018,08,20,16,54,28.40
2018,08,20,16,55,28.40
2018,08,20,16,56,28.40
2018,08,20,16,57,28.40
2018,08,20,16,58,28.40
2018,08,20,16,59,28.40
2018,08,20,17,00,28.40
2018,08,20,17,01,28.30
2018,08,20,17,02,28.30
2018,08,20,17,03,28.20
2018,08,20,17,04,28.20
2018,08,20,17,05,28.10
2018,08,20,17,06,27.90
2018,08,20,17,07,27.80
2018,08,20,17,08,27.70
2018,08,20,17,09,27.70
2018,08,20,17,10,27.60
2018,08,20,17,11,27.60
2018,08,20,17,12,27.50
2018,08,20,17,13,27.40
2018,08,20,17,14,27.30
2018,08,20,17,15,27.30
2018,08,20,17,16,27.30
2018,08,20,17,17,27.30
2018,08,20,17,18,27.30
2018,08,20,17,19,27.30